Station APCF1 - 8728690 - Apalachicola, FL Image indicating link to RSS feed of recent meteorological observations for station APCF1


Conditions at APCF1 as of
(4:54 pm EDT)
2054 GMT on 05/22/2024:
     

Click on the graph icon in the table below to see a time series plot of the last five days of that observation.

5-day plot - Wind Direction Wind Direction (WDIR):SSE ( 160 deg true )
5-day plot - Wind Speed Wind Speed (WSPD): 6.0 kts
5-day plot - Wind Gust Wind Gust (GST): 8.9 kts
5-day plot - Atmospheric Pressure Atmospheric Pressure (PRES):29.98 in
5-day plot - Air Temperature Air Temperature (ATMP): 79.7 °F
5-day plot - Water Temperature Water Temperature (WTMP): 79.0 °F
5-day plot - Wind Speed at 10 Meters Wind Speed at 10 meters (WSPD10M): 7.8 kts
5-day plot - Wind Speed at 20 Meters Wind Speed at 20 meters (WSPD20M): 7.8 kts
5-day plot -  Wind Speed, Wind Gust and Atmospheric Pressure Combined plot of Wind Speed, Gust, and Air Pressure
NOS Water Level Observation Network Water Level
Previous observations
TIME
(EDT)
5-day plot - Wind Direction
WDIR
 
5-day plot - Wind Speed
WSPD
kts
5-day plot - Wind Gust
GST
kts
5-day plot - Wave Height
WVHT
ft
5-day plot - Dominant Wave Period
DPD
sec
5-day plot - Average Wave Period
APD
sec
5-day plot - Mean Wave Direction
MWD
 
5-day plot - Atmospheric Pressure
PRES
in
5-day plot - Pressure Tendency
PTDY
in
5-day plot - Air Temperature
ATMP
°F
5-day plot - Water Temperature
WTMP
°F
5-day plot - Dew Point
DEWP
°F
5-day plot - Salinity
SAL
psu
5-day plot - Visibility
VIS
nmi
5-day plot - Tide (above MLLW)
TIDE
ft
2024-05-22 04:48 pmSSE 6.0 7.0----29.99- 79.7 79.0----
2024-05-22 04:42 pmSSE 6.0 8.0----29.99- 79.7 79.0----
2024-05-22 04:36 pmSSE 6.0 7.0----29.99- 79.7 79.2----
2024-05-22 04:30 pmSSE 7.0 8.0----29.99- 79.5 79.2----
2024-05-22 04:24 pmSSE 6.0 7.0----29.99- 79.5 79.2----
2024-05-22 04:18 pmSSE 7.0 8.0----29.99- 79.7 79.3----
2024-05-22 04:12 pmSSE 7.0 8.9----29.99- 79.5 79.3----
2024-05-22 04:06 pmSSE 7.0 8.0----29.99- 79.5 79.2----
2024-05-22 04:00 pm SE 7.0 9.9----29.99-0.05 79.5 79.2----
2024-05-22 03:54 pmSSE 7.0 8.9----29.99- 79.3 79.0----
2024-05-22 03:48 pmSSE 7.0 8.9----29.99- 79.5 79.0----
2024-05-22 03:42 pm SE 6.0 8.9----30.00- 79.5 79.0----
2024-05-22 03:36 pmSSE 7.0 8.9----30.00- 79.7 78.8----
2024-05-22 03:30 pmSSE 8.0 9.9----30.00- 79.5 78.8----
2024-05-22 03:24 pmSSE 8.0 11.1----30.00- 79.7 78.6----
2024-05-22 03:18 pmSSE 7.0 9.9----30.01- 79.7 78.6----
2024-05-22 03:12 pmSSE 7.0 8.9----30.01- 79.7 78.6----
2024-05-22 03:06 pm SE 6.0 8.0----30.01- 79.5 78.6----
2024-05-22 03:00 pmSSE 6.0 8.9----30.01-0.02 79.5 78.6----
2024-05-22 02:54 pmSSE 7.0 9.9----30.01- 79.5 78.4----
2024-05-22 02:48 pmSSE 7.0 8.9----30.01- 79.7 78.3----
2024-05-22 02:42 pmSSE 6.0 8.9----30.02- 79.5 78.3----
2024-05-22 02:36 pm SE 6.0 8.9----30.02- 79.5 78.3----
2024-05-22 02:30 pmSSE 7.0 8.9----30.03- 79.5 78.3----
2024-05-22 02:24 pmSSE 6.0 8.0----30.03- 79.3 78.3----
2024-05-22 02:18 pmSSE 6.0 8.0------- 78.3----
2024-05-22 02:12 pmSSE 6.0 8.0------- 78.3----
2024-05-22 02:06 pmSSE 7.0 8.9------- 78.3----
2024-05-22 02:00 pmSSE 6.0 7.0------- 78.3----
2024-05-22 01:54 pm SE 5.1 7.0------- 78.4----
2024-05-22 01:48 pmSSE 7.0 8.0------- 78.3----
2024-05-22 01:42 pmSSE 6.0 7.0------- 78.3----
2024-05-22 01:36 pm SE 5.1 8.0------- 78.3----
2024-05-22 01:30 pmSSE 5.1 7.0----30.04-------
2024-05-22 01:24 pm SE 5.1 8.0----30.05-------
2024-05-22 01:18 pm SE 5.1 7.0------- 78.3----
2024-05-22 01:12 pmSSE 6.0 7.0------- 78.3----
2024-05-22 01:06 pm SE 6.0 8.9------- 78.3----
2024-05-22 01:00 pmSSE 7.0 8.9----30.04+0.02- 78.3----
2024-05-22 12:54 pmSSE 6.0 8.0----30.04-- 78.3----
2024-05-22 12:48 pm SE 6.0 8.0------- 78.3----
2024-05-22 12:42 pmESE 5.1 8.9------- 78.3----
2024-05-22 12:36 pmESE 6.0 8.0------- 78.3----
2024-05-22 12:30 pm SE 5.1 7.0------------
2024-05-22 12:24 pm SE 5.1 8.0------------
2024-05-22 12:18 pmESE 6.0 8.0------ 78.6 78.1----
2024-05-22 12:12 pm SE 6.0 8.0------ 78.8 78.1----
2024-05-22 12:06 pm SE 6.0 7.0------ 79.0 78.1----
2024-05-22 12:00 pm SE 6.0 8.9----30.03+0.03 78.6 78.1----
2024-05-22 11:54 am SE 7.0 9.9----30.03- 79.2 78.1----
2024-05-22 11:48 am SE 7.0 8.9----30.03- 78.4 78.1----
2024-05-22 11:42 am SE 7.0 8.9----30.03- 78.4 78.1----
2024-05-22 11:36 am SE 6.0 8.9----30.03- 78.6 78.1----
2024-05-22 11:30 am SE 6.0 9.9----30.03- 78.6 78.1----
2024-05-22 11:24 am SE 8.0 8.9----30.03- 78.4 77.9----
2024-05-22 11:18 am SE 7.0 9.9----30.03- 78.4 77.9----
2024-05-22 11:12 amESE 7.0 9.9----30.03- 78.3 77.9----
2024-05-22 11:06 amESE 7.0 9.9----30.03- 78.3 77.9----
2024-05-22 11:00 am SE 8.0 8.9----30.03+0.04 78.3 77.9----
2024-05-22 10:54 amESE 7.0 8.9----30.03- 78.3 77.9----
2024-05-22 10:48 amESE 6.0 8.9----30.03-- 77.9----
2024-05-22 10:42 amESE 8.0 9.9----30.03-- 77.7----
2024-05-22 10:36 amESE 7.0 9.9----30.03-- 77.7----
2024-05-22 10:30 amESE 6.0 8.0------------
2024-05-22 10:24 amESE 5.1 7.0------------
2024-05-22 10:18 amESE 6.0 8.0------------
2024-05-22 10:12 amESE 5.1 6.0------------
2024-05-22 10:06 amESE 5.1 7.0------------
2024-05-22 10:00 amESE 6.0 7.0----30.02+0.04 78.3 77.5----
2024-05-22 09:54 amESE 6.0 8.0----30.02- 78.1 77.4----
2024-05-22 09:48 amESE 6.0 8.0----30.01-- 77.4----
2024-05-22 09:42 amESE 5.1 8.0----30.00-- 77.4----
2024-05-22 09:36 amESE 7.0 8.0----30.00-- 77.4----
2024-05-22 09:30 amESE 6.0 8.0------------
2024-05-22 09:24 amESE 6.0 7.0------------
2024-05-22 09:18 am E 5.1 7.0----30.00-- 77.4----
2024-05-22 09:12 amENE 5.1 7.0----30.00-- 77.4----
2024-05-22 09:06 amENE 6.0 7.0----30.00-- 77.2----
2024-05-22 09:00 amENE 5.1 6.0----30.00+0.03 75.4 77.2----
2024-05-22 08:54 amENE 5.1 6.0----30.00- 74.7 77.2----
2024-05-22 08:48 amENE 5.1 6.0----30.00- 73.9 77.2----
2024-05-22 08:42 am NE 4.1 6.0----30.00- 74.5 77.2----
2024-05-22 08:36 am NE 5.1 7.0----30.00- 74.1 77.2----
2024-05-22 08:30 am NE 4.1 5.1----30.00- 73.8 77.2----
2024-05-22 08:24 am NE 4.1 5.1----30.00- 73.2 77.2----
2024-05-22 08:18 amNNE 4.1 5.1----30.00- 73.2 77.2----
2024-05-22 08:12 amNNE 4.1 5.1----30.00- 72.5 77.2----
2024-05-22 08:06 amNNE 4.1 5.1----30.00- 72.0 77.2----
2024-05-22 08:00 amNNE 5.1 6.0----30.00+0.04 71.8 77.2----
2024-05-22 07:54 amNNE 5.1 6.0----30.00- 71.2 77.2----
2024-05-22 07:48 amNNE 5.1 6.0----30.00- 70.9 77.2----
2024-05-22 07:42 am N 5.1 5.1----30.00- 70.5 77.2----
2024-05-22 07:36 am N 4.1 5.1----30.00- 70.0 77.2----
2024-05-22 07:30 amNNE 4.1 5.1----30.00- 70.0 77.2----
2024-05-22 07:24 am N 5.1 5.1----29.99- 69.8 77.2----
2024-05-22 07:18 amNNE 5.1 6.0----29.99- 69.4 77.2----
2024-05-22 07:12 amNNE 5.1 6.0----29.99- 69.6 77.4----
2024-05-22 07:06 am N 5.1 7.0----29.99- 69.8 77.2----
2024-05-22 07:00 am N 5.1 6.0----29.99+0.03 69.6 77.2----
2024-05-22 06:54 am N 5.1 6.0----29.99- 69.4 77.4----
2024-05-22 06:48 am N 5.1 6.0----29.98- 69.4 77.4----
2024-05-22 06:42 amNNE 5.1 6.0----29.97- 69.4 77.4----
2024-05-22 06:36 amNNE 5.1 6.0----29.97- 69.4 77.4----
2024-05-22 06:30 amNNE 5.1 6.0----29.97- 69.6 77.4----
2024-05-22 06:24 amNNE 4.1 5.1----29.97- 69.4 77.4----
2024-05-22 06:18 amNNE 5.1 6.0----29.97- 69.3 77.4----
2024-05-22 06:12 amNNE 5.1 6.0----29.97- 69.4 77.4----
2024-05-22 06:06 amNNE 5.1 6.0----29.97- 69.8 77.4----
2024-05-22 06:00 amNNE 5.1 6.0----29.97+0.00 69.8 77.4----
2024-05-22 05:54 amNNE 5.1 6.0----29.97- 69.6 77.4----
2024-05-22 05:48 amNNE 5.1 6.0----29.97- 69.8 77.4----
2024-05-22 05:42 am N 5.1 6.0----29.97- 69.8 77.4----
2024-05-22 05:36 am N 6.0 7.0----29.97- 69.8 77.4----
2024-05-22 05:30 am N 6.0 7.0----29.96- 69.8 77.4----
2024-05-22 05:24 amNNE 5.1 6.0----29.96- 69.6 77.4----
2024-05-22 05:18 amNNE 5.1 7.0----29.96- 70.0 77.4----
2024-05-22 05:12 amNNE 5.1 6.0----29.96- 70.0 77.4----
2024-05-22 05:06 amNNE 5.1 6.0----29.96- 70.0 77.4----
2024-05-22 05:00 amNNE 5.1 6.0----29.96-0.01 70.2 77.4----
2024-05-22 04:54 amNNE 5.1 6.0----29.96- 70.3 77.4----
2024-05-22 04:48 am N 5.1 7.0----29.96- 70.3 77.4----
2024-05-22 04:42 am N 6.0 7.0----29.96- 70.2 77.4----
2024-05-22 04:36 am N 5.1 7.0----29.96- 70.2 77.4----
2024-05-22 04:30 am N 6.0 7.0----29.96- 70.3 77.4----
2024-05-22 04:24 am N 5.1 6.0----29.96- 70.7 77.4----
2024-05-22 04:18 am N 5.1 6.0----29.96- 70.9 77.4----
2024-05-22 04:12 amNNE 5.1 7.0----29.96- 70.9 77.4----
2024-05-22 04:06 am N 5.1 7.0----29.96- 71.1 77.4----
2024-05-22 04:00 am N 5.1 7.0----29.96-0.01 70.9 77.4----
2024-05-22 03:54 am N 4.1 6.0----29.96- 70.7 77.4----
2024-05-22 03:48 am N 4.1 6.0----29.96- 70.5 77.4----
2024-05-22 03:42 am N 5.1 7.0----29.96- 70.5 77.4----
2024-05-22 03:36 am N 6.0 7.0----29.96- 70.7 77.4----
2024-05-22 03:30 am N 6.0 8.0----29.96- 70.7 77.4----
2024-05-22 03:24 am N 7.0 8.0----29.96- 70.7 77.5----
2024-05-22 03:18 am N 6.0 7.0----29.97- 70.9 77.5----
2024-05-22 03:12 am N 4.1 6.0----29.97- 70.7 77.5----
2024-05-22 03:06 am N 4.1 5.1----29.97- 70.5 77.5----
2024-05-22 03:00 am N 4.1 6.0----29.97+0.01 70.7 77.5----
2024-05-22 02:54 am N 4.1 5.1----29.97- 70.9 77.5----
2024-05-22 02:48 am N 5.1 6.0----29.97- 71.1 77.5----
2024-05-22 02:42 am N 5.1 7.0----29.97- 71.2 77.5----
2024-05-22 02:36 am N 5.1 6.0----29.97- 71.1 77.5----
2024-05-22 02:30 amNNE 5.1 5.1----29.97- 70.7 77.5----
2024-05-22 02:24 am NE 5.1 6.0----29.97- 71.1 77.5----
2024-05-22 02:18 amNNE 5.1 5.1----29.97- 71.2 77.7----
2024-05-22 02:12 am NE 2.9 6.0----29.97- 71.4 77.7----
2024-05-22 02:06 amNNE 4.1 5.1----29.97- 71.8 77.7----
2024-05-22 02:00 am N 5.1 6.0----29.97+0.01 72.0 77.7----
2024-05-22 01:54 am N 4.1 5.1----29.97- 72.0 77.7----
2024-05-22 01:48 am N 4.1 6.0----29.97- 72.1 77.7----
2024-05-22 01:42 am N 5.1 6.0----29.97- 71.8 77.7----
2024-05-22 01:36 am N 5.1 7.0----29.97- 71.8 77.9----
2024-05-22 01:30 am N 5.1 7.0----29.97- 72.0 77.9----
2024-05-22 01:24 am N 5.1 6.0----29.97- 72.1 77.9----
2024-05-22 01:18 am N 2.9 5.1----29.97- 72.0 77.9----
2024-05-22 01:12 am N 2.9 5.1----29.97- 72.1 77.9----
2024-05-22 01:06 am N 4.1 5.1----29.97- 72.1 77.9----
2024-05-22 01:00 am N 4.1 5.1----29.97+0.01 72.1 77.9----
2024-05-22 12:54 am N 4.1 5.1----29.97- 72.1 78.1----
2024-05-22 12:48 am N 4.1 5.1----29.96- 72.3 78.1----
2024-05-22 12:42 amNNW 1.9 4.1----29.97- 72.5 78.1----
2024-05-22 12:36 am N 2.9 4.1----29.96- 72.5 78.1----
2024-05-22 12:30 am N 2.9 2.9----29.96- 72.5 78.1----
2024-05-22 12:24 am N 2.9 4.1----29.96- 72.7 78.1----
2024-05-22 12:18 am N 2.9 4.1----29.96- 72.7 78.3----
2024-05-22 12:12 am N 1.9 4.1----29.96- 72.7 78.3----
2024-05-22 12:06 am N 2.9 4.1----29.96- 72.7 78.3----
2024-05-22 12:00 am N 2.9 5.1----29.96+0.01 72.7 78.3----
2024-05-21 11:54 pm N 2.9 5.1----29.96- 72.9 78.3----
2024-05-21 11:48 pmNNW 1.9 4.1----29.96- 73.0 78.3----
2024-05-21 11:42 pmNNW 1.9 4.1----29.96- 73.2 78.3----
2024-05-21 11:36 pmNNW 1.9 4.1----29.96- 73.4 78.4----
2024-05-21 11:30 pmNNW 1.9 4.1----29.96- 73.6 78.4----
2024-05-21 11:24 pmNNW 2.9 5.1----29.96- 73.8 78.4----
2024-05-21 11:18 pmNNW 2.9 5.1----29.96- 74.1 78.4----
2024-05-21 11:12 pmNNW 1.9 5.1----29.96- 74.5 78.4----
2024-05-21 11:06 pm NW 1.9 4.1----29.96- 74.3 78.6----
2024-05-21 11:00 pm NW 1.9 4.1----29.96+0.01 74.3 78.6----
2024-05-21 10:54 pm NW 1.9 2.9----29.96- 74.1 78.6----
2024-05-21 10:48 pm- 0.0 2.9----29.96- 74.1 78.6----
2024-05-21 10:42 pm NW 1.0 2.9----29.95- 74.5 78.8----
2024-05-21 10:36 pm- 0.0 2.9----29.95- 74.8 78.8----
2024-05-21 10:30 pm NW 1.9 2.9----29.95- 75.0 78.8----
2024-05-21 10:24 pm NW 1.9 2.9----29.94- 75.6 78.8----
2024-05-21 10:18 pmNNW 1.9 2.9----29.95- 75.6 78.8----
2024-05-21 10:12 pmNNW 1.0 1.9----29.95- 75.9 79.0----
2024-05-21 10:06 pmNNW 1.0 1.9----29.96- 76.3 79.0----
2024-05-21 10:00 pmNNW 1.0 1.9----29.95+0.00 76.3 79.0----
2024-05-21 09:54 pm- 0.0 1.0----29.96- 75.9 79.0----
2024-05-21 09:48 pmNNW 1.0 1.9----29.95- 75.9 79.0----
2024-05-21 09:42 pm- 0.0 1.9----29.95- 75.7 79.2----
2024-05-21 09:36 pmWNW 1.0 2.9----29.95- 75.9 79.2----
2024-05-21 09:30 pmWNW 1.9 2.9----29.95- 76.3 79.2----
2024-05-21 09:24 pmWNW 1.0 1.9----29.95- 76.8 79.2----
2024-05-21 09:18 pmWNW 1.0 1.0----29.95- 77.0 79.3----
2024-05-21 09:12 pmWNW 1.0 1.0----29.94- 77.0 79.3----
2024-05-21 09:06 pmWNW 1.0 1.9----29.94- 76.8 79.3----
2024-05-21 09:00 pm- 0.0 1.0----29.94+0.00 76.6 79.3----
2024-05-21 08:54 pmWNW 1.0 1.0----29.94- 77.4 79.3----
2024-05-21 08:48 pmWNW 1.0 1.9----29.94- 77.4 79.3----
2024-05-21 08:42 pm- 0.0 1.0----29.94- 77.4 79.5----
2024-05-21 08:36 pm SW 1.0 1.0----29.94- 77.5 79.5----
2024-05-21 08:30 pm- 0.0 1.0----29.94- 77.7 79.5----
2024-05-21 08:24 pmSSW 1.9 2.9----29.94- 78.1 79.5----
2024-05-21 08:18 pm SW 1.9 1.9----29.94- 78.1 79.5----
2024-05-21 08:12 pmSSW 1.9 2.9----29.95- 78.3 79.5----
2024-05-21 08:06 pm SW 1.9 1.9----29.95- 78.6 79.5----
2024-05-21 08:00 pm SW 1.9 4.1----29.95+0.00 79.2 79.5----
2024-05-21 07:54 pmWSW 1.9 1.9----29.95- 79.9 79.5----
2024-05-21 07:48 pmSSW 1.9 2.9----29.94- 80.2 79.5----
2024-05-21 07:42 pm SW 2.9 2.9----29.95- 80.4 79.5----
2024-05-21 07:36 pm SW 1.9 2.9----29.95- 80.2 79.5----
2024-05-21 07:30 pm SW 2.9 2.9----29.95- 80.4 79.5----
2024-05-21 07:24 pmSSW 4.1 5.1----29.95- 79.9 79.5----
2024-05-21 07:18 pm SW 4.1 5.1----29.95- 79.9 79.5----
2024-05-21 07:12 pmSSW 4.1 5.1----29.95- 79.5 79.3----
2024-05-21 07:06 pmSSW 4.1 5.1----29.94- 79.5 79.3----
2024-05-21 07:00 pm S 5.1 6.0----29.95-0.01 78.8 79.3----
2024-05-21 06:54 pm S 5.1 6.0----29.95- 79.0 79.3----
2024-05-21 06:48 pm S 6.0 7.0----29.95- 79.0 79.3----
2024-05-21 06:42 pm S 4.1 6.0----29.95- 79.2 79.2----
2024-05-21 06:36 pmSSW 5.1 6.0----29.95- 79.2 79.2----
2024-05-21 06:30 pm S 6.0 8.0----29.94- 79.0 79.2----
2024-05-21 06:24 pm S 6.0 8.9----29.94- 78.8 79.0----
2024-05-21 06:18 pmSSE 6.0 8.0----29.94- 79.3 78.8----
2024-05-21 06:12 pm S 7.0 8.9----29.94- 79.0 78.8----
2024-05-21 06:06 pmSSE 7.0 8.9----29.94- 79.2 78.8----
2024-05-21 06:00 pm S 7.0 8.9----29.94-0.03 79.2 78.8----
2024-05-21 05:54 pmSSE 7.0 8.9----29.94- 79.2 78.8----
2024-05-21 05:48 pmSSE 6.0 8.0----29.94- 79.3 78.8----
2024-05-21 05:42 pmSSE 6.0 8.0----29.95- 79.2 78.6----
2024-05-21 05:36 pmSSE 6.0 7.0----29.95- 79.3 78.8----
2024-05-21 05:30 pmSSE 6.0 7.0----29.95-- 78.8----
2024-05-21 05:24 pmSSE 6.0 8.0----29.95-- 78.8----
2024-05-21 05:18 pmSSE 6.0 8.0----29.95-- 78.8----
2024-05-21 05:12 pm S 5.1 8.0----29.95-- 78.8----
2024-05-21 05:06 pmSSE 7.0 8.9----29.95-- 78.8----
2024-05-21 05:00 pmSSE 6.0 8.0----29.95-0.02 78.3 78.8----
2024-05-21 04:54 pmSSE 6.0 8.9----29.95- 78.3 79.0----